Вернуться в каталог

STARLINK-38055

АктивенСвязьSSO
NORAD 69704·PAYLOAD·🇺🇸 United States

Запущен Jun 28, 2026 с Vandenberg Space Force Base

Loading…

Ближайшие Пролёты (ближайшие 24 часа)

TLE

СвежийSource: CelesTrak SupGP

Эпоха: Sep 15, 2026, 03:09 UTC

1 69704C 26147A   26258.13173611 -.00030563  00000+0 -94876-3 0  2585
2 69704  97.2835 294.4898 0001114  98.3125 340.2780 15.33454417    13

Отслеживайте STARLINK-38055 в реальном времени с AllMySat

Download on the App Store